[[{"header":{"parameterUnit":"m.s-1","parameterCategory":2,"la1":30.2991,"la2":30.254,"lo1":-89.0895,"lo2":-89.0444,"dy":0.0017,"dx":0.0017,"nx":28,"ny":28,"refTime":"2023-07-31T21:00:00:Z","depth":"0","parameterNumber":2,"parameterNumberName":"U-component_of_CURRENTS"},"data":[0,0,0,0,0,0,0,0,0,0,0,0,0,0,0,0,0,0,0,0,0,0,0,0,0,0,0,0,0,0,0,0,0,0,0,0,0,0,0,0,0,0,0,0,0,0,0,0,0,0,0,0,0,0,0,0,0,0,-0.2717,-0.2717,0,-0.2705,-0.2705,-0.2704,-0.2641,-0.264,-0.2639,-0.2637,-0.2545,-0.2543,-0.2542,0,0,0,0,0,0,0,0,0,0,0,0,0,-0.2726,-0.2725,-0.2717,-0.2717,-0.2717,-0.2705,-0.2704,-0.2704,-0.2642,-0.264,-0.2638,-0.2637,-0.2545,-0.2544,-0.2542,0,0,0,0,0,0,0,0,0,0,0,0,0,-0.2717,-0.2725,-0.2717,-0.2685,-0.2682,-0.2705,-0.2704,-0.2704,-0.2642,-0.264,-0.2638,-0.2636,-0.2545,-0.2544,-0.2542,-0.2572,0,0,-0.2536,-0.2536,0,0,0,0,0,0,0,0,-0.2718,-0.2717,-0.269,-0.2688,-0.2684,-0.2674,-0.2674,-0.2656,-0.2643,-0.2656,-0.2637,-0.2635,-0.2583,-0.2578,-0.2579,-0.2568,-0.2564,-0.2536,-0.2535,-0.2534,-0.2534,0,0,0,0,0,0,0,-0.2718,-0.2717,-0.2711,-0.269,-0.2687,-0.2685,-0.2681,-0.267,-0.2628,-0.2655,-0.265,-0.2652,-0.258,-0.2581,-0.2576,-0.2562,-0.2536,-0.2535,-0.2534,-0.2533,-0.254,-0.2541,0,0,0,0,0,0,-0.2723,-0.2718,-0.2711,-0.2711,-0.2698,-0.2687,-0.2682,-0.2678,-0.263,-0.2622,-0.2654,-0.2649,-0.2585,-0.2579,-0.2573,-0.2571,-0.2534,-0.2533,-0.2532,-0.2539,-0.254,-0.2542,0,0,0,0,0,0,-0.2723,-0.2722,-0.2712,-0.2715,-0.2714,-0.2689,-0.2685,-0.2679,-0.2671,-0.2631,-0.262,-0.265,-0.2583,-0.2575,-0.2564,-0.2567,-0.2532,-0.253,-0.2537,-0.2539,-0.2541,-0.2588,0,0,0,0,0,0,-0.2723,-0.2722,-0.2717,-0.2715,-0.2714,-0.2721,-0.2687,-0.268,-0.2676,-0.267,-0.2625,-0.2614,-0.2581,-0.2567,-0.2563,-0.2564,-0.2529,-0.2536,-0.2538,-0.254,-0.2585,-0.2592,-0.2597,0,0,0,0,0,-0.2723,-0.2721,-0.2717,-0.2716,-0.2709,-0.2722,-0.2721,-0.2696,-0.2678,-0.268,-0.2654,-0.2615,-0.2578,-0.2568,-0.2561,-0.2562,-0.2535,-0.2538,-0.254,-0.2583,-0.2591,-0.2597,0,0,0,0,0,0,-0.2712,-0.2715,-0.271,-0.2705,-0.2714,-0.2711,-0.2708,-0.2703,-0.2687,-0.2675,-0.2635,-0.2624,-0.2614,-0.2593,-0.2582,-0.2575,-0.2549,-0.2551,-0.2584,-0.2591,-0.2597,-0.2586,-0.2527,0,0,0,0,0,-0.2713,-0.2711,-0.2722,-0.2716,-0.2723,-0.2721,-0.2722,-0.2713,-0.2703,-0.2693,-0.2666,-0.2641,-0.2627,-0.2611,-0.2595,-0.2596,-0.2558,-0.2594,-0.26,-0.2605,-0.2595,-0.2554,-0.2555,-0.2551,-0.2551,-0.2551,0,0,-0.2704,-0.2707,-0.2703,-0.2714,-0.2715,-0.2727,-0.2715,-0.272,-0.2724,-0.2687,-0.2675,-0.2661,-0.2634,-0.2629,-0.2623,-0.2607,-0.259,-0.2608,-0.2613,-0.2599,-0.2557,-0.2557,-0.2557,-0.2553,-0.2553,-0.2552,0,0,-0.2693,-0.2694,-0.2694,-0.2709,-0.2722,-0.2728,-0.2734,-0.2741,-0.2734,-0.2739,-0.2712,-0.2707,-0.2681,-0.2666,-0.2655,-0.269,-0.2626,-0.2682,-0.2696,-0.2658,-0.2657,-0.2656,-0.2616,-0.2611,-0.2681,-0.2681,-0.2681,0,-0.2682,-0.2678,-0.2697,-0.2709,-0.2712,-0.2731,-0.2735,-0.2749,-0.2748,-0.2742,-0.2735,-0.271,-0.2698,-0.2687,-0.2702,-0.2701,-0.2661,-0.2668,-0.2663,-0.2661,-0.2659,-0.2619,-0.2612,-0.2684,-0.2683,-0.2683,-0.2683,0,-0.2675,-0.2676,-0.268,-0.2697,-0.2713,-0.2718,-0.2747,-0.2756,-0.2755,-0.2758,-0.2752,-0.2749,-0.2721,-0.2735,-0.2728,-0.2714,-0.2686,-0.2676,-0.2639,-0.2661,-0.2619,-0.2611,-0.2687,-0.2686,-0.2686,-0.2685,0,0,-0.2619,-0.2664,-0.2661,-0.266,-0.2702,-0.2705,-0.2732,-0.2744,-0.2739,-0.2757,-0.2741,-0.2757,-0.2746,-0.2734,-0.2731,-0.272,-0.2693,-0.2693,-0.269,-0.2644,-0.2593,-0.2422,-0.2397,-0.2669,-0.2668,-0.2667,-0.2572,0,-0.2595,-0.2602,-0.2641,-0.2639,-0.2637,-0.2678,-0.2694,-0.2715,-0.273,-0.2728,-0.2743,-0.2731,-0.2748,-0.2733,-0.2726,-0.2703,-0.2673,-0.2719,-0.2587,-0.2583,-0.2419,-0.2383,-0.213,-0.2009,-0.2564,-0.2563,-0.2562,0,-0.2554,-0.2564,-0.2562,-0.2584,-0.2588,-0.2601,-0.2609,-0.263,-0.266,-0.2671,-0.2677,-0.2686,-0.2689,-0.2695,-0.2649,-0.267,-0.2626,-0.2612,-0.2607,-0.2419,-0.2396,-0.2075,-0.1973,-0.1686,-0.255,-0.255,-0.2551,0,-0.2457,-0.2493,-0.2481,-0.2492,-0.2538,-0.2539,-0.2557,-0.2594,-0.2596,-0.2627,-0.2623,-0.2635,-0.2617,-0.2593,-0.2577,-0.2597,-0.2512,-0.253,-0.2333,-0.2321,-0.2063,-0.2029,-0.165,-0.2464,-0.2464,-0.2464,-0.2464,0,-0.2386,-0.2366,-0.2433,-0.242,-0.2395,-0.2461,-0.2438,-0.2471,-0.2508,-0.2494,-0.2569,-0.2551,-0.2585,-0.2554,-0.2545,-0.2399,-0.2471,-0.2306,-0.2269,-0.2073,-0.2043,-0.1748,-0.1695,-0.2461,-0.2461,-0.2462,-0.2463,0,-0.2255,-0.2306,-0.2285,-0.2335,-0.2343,-0.2316,-0.235,-0.2339,-0.2401,-0.2385,-0.2391,-0.2457,-0.2411,-0.2428,-0.2383,-0.231,-0.213,-0.2161,-0.193,-0.1864,-0.1378,-0.1342,-0.1343,-0.1427,-0.19,-0.1895,-0.1891,0,-0.2175,-0.2157,-0.2195,-0.2179,-0.2194,-0.2181,-0.2172,-0.2251,-0.2257,-0.2312,-0.2294,-0.228,-0.2212,-0.2094,-0.1989,-0.1877,-0.1927,-0.1574,-0.1557,-0.1267,-0.1202,-0.1506,-0.1606,-0.1253,-0.1244,-0.1236,-0.123,0,-0.201,-0.2037,-0.2029,-0.2011,-0.2,-0.1997,-0.2006,-0.201,-0.2098,-0.2097,-0.2082,-0.2033,-0.1886,-0.1583,-0.1433,-0.1417,-0.1446,-0.1411,-0.1155,-0.0674,-0.0939,-0.1026,-0.1426,-0.1163,-0.117,-0.1175,-0.1179,-0.1181,-0.1864,-0.1832,-0.1838,-0.1805,-0.181,-0.1814,-0.1771,-0.1809,-0.18,-0.174,-0.1794,-0.1544,-0.1139,-0.087,-0.0843,-0.0486,-0.0962,-0.0343,-0.0334,-0.0684,-0.0711,-0.0957,-0.0626,-0.063,-0.0633,-0.0635,-0.0638,0,-0.1659,-0.1657,-0.1629,-0.161,-0.1578,-0.1642,-0.1649,-0.1587,-0.153,-0.1379,-0.1273,-0.0648,-0.0202,0.0063,0.0503,0.0668,0.0287,0.0667,0.0393,0.0219,0.0094,0.0199,0.0783,0.0783,0.0782,0.0782,0.0782,0.0781,-0.1544,-0.146,-0.1468,-0.1371,-0.1383,-0.1303,-0.1291,-0.1212,-0.1063,-0.0668,-0.0253,-0.0033,0.0446,0.1208,0.1641,0.1566,0.1332,0.1276,0.0998,0.12,0.1106,0.1017,0.1138,0.1909,0.191,0.1019,0.1016,0.1014]},{"header":{"parameterUnit":"m.s-1","parameterCategory":2,"la1":30.2991,"la2":30.254,"lo1":-89.0895,"lo2":-89.0444,"dy":0.0017,"dx":0.0017,"nx":28,"ny":28,"refTime":"2023-07-31T21:00:00:Z","depth":"0","parameterNumber":3,"parameterNumberName":"V-component_of_CURRENTS"},"data":[0,0,0,0,0,0,0,0,0,0,0,0,0,0,0,0,0,0,0,0,0,0,0,0,0,0,0,0,0,0,0,0,0,0,0,0,0,0,0,0,0,0,0,0,0,0,0,0,0,0,0,0,0,0,0,0,0,0,-0.0882,-0.0881,0,-0.0789,-0.0788,-0.0787,-0.0719,-0.0719,-0.0718,-0.0718,-0.0585,-0.0582,-0.0579,0,0,0,0,0,0,0,0,0,0,0,0,0,-0.0893,-0.0894,-0.0882,-0.0881,-0.088,-0.079,-0.0788,-0.0787,-0.072,-0.0719,-0.0718,-0.0718,-0.0586,-0.0583,-0.0579,0,0,0,0,0,0,0,0,0,0,0,0,0,-0.0853,-0.0894,-0.0882,-0.0836,-0.0831,-0.079,-0.0788,-0.0787,-0.072,-0.0719,-0.0718,-0.0717,-0.0587,-0.0583,-0.0578,-0.0565,0,0,-0.0564,-0.0562,0,0,0,0,0,0,0,0,-0.0855,-0.0853,-0.0844,-0.0839,-0.0833,-0.0766,-0.0743,-0.0711,-0.072,-0.0761,-0.0718,-0.0717,-0.0643,-0.0634,-0.0617,-0.0559,-0.0553,-0.0564,-0.0561,-0.0559,-0.0558,0,0,0,0,0,0,0,-0.0858,-0.0855,-0.0845,-0.0843,-0.0836,-0.0783,-0.0777,-0.0737,-0.0706,-0.0757,-0.0752,-0.0744,-0.064,-0.0622,-0.0614,-0.0551,-0.0564,-0.056,-0.0557,-0.0555,-0.0417,-0.0416,0,0,0,0,0,0,-0.0878,-0.0859,-0.0847,-0.0842,-0.0844,-0.0784,-0.0778,-0.0788,-0.0707,-0.0695,-0.0744,-0.0741,-0.063,-0.0619,-0.0609,-0.0566,-0.0559,-0.0555,-0.0552,-0.0418,-0.0417,-0.0416,0,0,0,0,0,0,-0.0879,-0.0879,-0.0851,-0.0847,-0.084,-0.0786,-0.0797,-0.0786,-0.0767,-0.0698,-0.0684,-0.0736,-0.0629,-0.0615,-0.0565,-0.0561,-0.0553,-0.0549,-0.0419,-0.0417,-0.0416,-0.0495,0,0,0,0,0,0,-0.088,-0.088,-0.0889,-0.085,-0.0841,-0.0832,-0.0797,-0.0785,-0.0763,-0.0758,-0.0686,-0.0673,-0.0628,-0.0572,-0.056,-0.0555,-0.0545,-0.042,-0.0418,-0.0417,-0.0494,-0.0497,-0.0499,0,0,0,0,0,-0.0881,-0.0895,-0.0891,-0.0888,-0.0858,-0.0832,-0.0823,-0.078,-0.0764,-0.0759,-0.0704,-0.0675,-0.0552,-0.0568,-0.0554,-0.0548,-0.0421,-0.0419,-0.0417,-0.0493,-0.0496,-0.0499,0,0,0,0,0,0,-0.0902,-0.0889,-0.0882,-0.0892,-0.0868,-0.0821,-0.0809,-0.0787,-0.0741,-0.0734,-0.067,-0.0653,-0.0604,-0.0563,-0.0582,-0.0498,-0.0479,-0.0474,-0.0541,-0.0544,-0.0547,-0.0575,-0.0541,0,0,0,0,0,-0.0915,-0.0924,-0.0899,-0.0907,-0.0898,-0.0858,-0.0841,-0.0818,-0.0775,-0.0754,-0.0705,-0.0643,-0.0585,-0.0557,-0.0502,-0.0466,-0.0467,-0.0447,-0.045,-0.0453,-0.0464,-0.0467,-0.0473,-0.0409,-0.0409,-0.0409,0,0,-0.0922,-0.0918,-0.0921,-0.0912,-0.0889,-0.088,-0.0845,-0.0828,-0.0814,-0.0747,-0.071,-0.0655,-0.0577,-0.0529,-0.0503,-0.0495,-0.0473,-0.045,-0.0454,-0.0463,-0.0466,-0.0472,-0.0478,-0.0407,-0.0408,-0.0408,0,0,-0.0941,-0.0944,-0.0954,-0.0943,-0.0921,-0.0897,-0.0898,-0.0858,-0.0833,-0.0797,-0.0737,-0.0687,-0.0604,-0.0551,-0.0511,-0.0497,-0.0488,-0.0469,-0.051,-0.0513,-0.052,-0.0525,-0.0558,-0.0566,-0.0472,-0.0472,-0.0472,0,-0.0947,-0.0964,-0.095,-0.0956,-0.0947,-0.0911,-0.0914,-0.0885,-0.0833,-0.0818,-0.0793,-0.0682,-0.0616,-0.0561,-0.0543,-0.0507,-0.0519,-0.051,-0.0522,-0.0527,-0.0532,-0.0564,-0.0572,-0.0476,-0.0475,-0.0475,-0.0475,0,-0.0971,-0.0983,-0.0987,-0.0988,-0.0979,-0.0974,-0.0943,-0.093,-0.0899,-0.0866,-0.0815,-0.0734,-0.0672,-0.0634,-0.0578,-0.0563,-0.0566,-0.0531,-0.0528,-0.0544,-0.0575,-0.0583,-0.0481,-0.0479,-0.0478,-0.0477,0,0,-0.0981,-0.1,-0.1,-0.1007,-0.0996,-0.0989,-0.0983,-0.0959,-0.0961,-0.0904,-0.0902,-0.0787,-0.0756,-0.0708,-0.0641,-0.063,-0.0665,-0.0596,-0.0595,-0.0656,-0.0704,-0.0637,-0.0638,-0.064,-0.0641,-0.0642,-0.0724,0,-0.0997,-0.102,-0.1026,-0.104,-0.1043,-0.103,-0.1027,-0.1007,-0.0983,-0.0974,-0.0901,-0.0859,-0.078,-0.0755,-0.0733,-0.0673,-0.0682,-0.0648,-0.0655,-0.0656,-0.0616,-0.0643,-0.0517,-0.0572,-0.073,-0.0731,-0.0732,0,-0.101,-0.1025,-0.1044,-0.1067,-0.1069,-0.1076,-0.1082,-0.1076,-0.1058,-0.1044,-0.1012,-0.0962,-0.0915,-0.0856,-0.0807,-0.0793,-0.0759,-0.0725,-0.0727,-0.0641,-0.06,-0.0572,-0.0578,-0.0501,-0.0742,-0.0742,-0.0741,0,-0.1006,-0.1035,-0.1052,-0.1057,-0.1075,-0.1089,-0.1096,-0.1093,-0.1094,-0.1094,-0.1101,-0.1053,-0.1024,-0.0981,-0.0888,-0.086,-0.0862,-0.0815,-0.0739,-0.0735,-0.0616,-0.0599,-0.0566,-0.0813,-0.0813,-0.0813,-0.0813,0,-0.101,-0.1021,-0.1053,-0.1059,-0.1084,-0.1099,-0.1126,-0.1132,-0.1152,-0.1151,-0.1131,-0.1121,-0.1051,-0.1026,-0.0954,-0.087,-0.0918,-0.0762,-0.0748,-0.0639,-0.0624,-0.0538,-0.0553,-0.0816,-0.0815,-0.0815,-0.0814,0,-0.0989,-0.1012,-0.103,-0.1064,-0.1079,-0.1092,-0.1139,-0.1162,-0.1182,-0.1192,-0.1193,-0.1184,-0.115,-0.1099,-0.1039,-0.0941,-0.0805,-0.0843,-0.0733,-0.0702,-0.0523,-0.0547,-0.0565,-0.0406,-0.0776,-0.0775,-0.0774,0,-0.0974,-0.0982,-0.1024,-0.1043,-0.1059,-0.1092,-0.1121,-0.1161,-0.1181,-0.1204,-0.1205,-0.1205,-0.1133,-0.1059,-0.0965,-0.0884,-0.0787,-0.0683,-0.0581,-0.0509,-0.0527,-0.0554,-0.0418,-0.0475,-0.0472,-0.0469,-0.0467,0,-0.0933,-0.095,-0.0969,-0.1018,-0.1053,-0.1094,-0.1133,-0.1144,-0.1176,-0.1144,-0.1098,-0.1047,-0.1028,-0.0865,-0.0798,-0.0717,-0.0572,-0.0621,-0.0564,-0.0309,-0.032,-0.0159,-0.0461,-0.0442,-0.0445,-0.0446,-0.0448,-0.0449,-0.0884,-0.0899,-0.0934,-0.0975,-0.1031,-0.1066,-0.1039,-0.1039,-0.0997,-0.082,-0.0879,-0.0576,-0.0549,-0.0438,-0.0492,-0.0373,-0.0436,-0.0214,-0.0264,-0.0309,-0.0102,-0.0362,-0.0303,-0.0304,-0.0306,-0.0307,-0.0308,0,-0.0786,-0.0835,-0.0891,-0.0937,-0.0983,-0.1024,-0.1023,-0.0917,-0.076,-0.0486,-0.0296,0.0212,0.0164,0.0119,0.0081,0.0066,0.0073,0.0065,0.0074,0.0198,-0.0038,0.004,0.0201,0.0201,0.0201,0.0201,0.0201,0.0201,-0.0728,-0.0747,-0.0799,-0.0859,-0.0905,-0.0856,-0.0811,-0.0606,-0.0347,0.0295,0.0845,0.1164,0.1236,0.067,0.0443,0.0372,0.0444,0.029,0.0354,0.0186,0.0157,0.013,0.0205,0.0398,0.0398,0.0722,0.0724,0.0725]}],[{"header":{"parameterUnit":"m.s-1","parameterCategory":2,"la1":30.2991,"la2":30.254,"lo1":-89.0895,"lo2":-89.0444,"dy":0.0017,"dx":0.0017,"nx":28,"ny":28,"refTime":"2023-07-31T21:00:00:Z","depth":"2","parameterNumber":2,"parameterNumberName":"U-component_of_CURRENTS"},"data":[0,0,0,0,0,0,0,0,0,0,0,0,0,0,0,0,0,0,0,0,0,0,0,0,0,0,0,0,0,0,0,0,0,0,0,0,0,0,0,0,0,0,0,0,0,0,0,0,0,0,0,0,0,0,0,0,0,0,-0.1644,-0.1644,0,-0.1664,-0.1665,-0.1665,-0.1769,-0.1771,-0.1773,-0.1775,-0.1908,-0.191,-0.1911,0,0,0,0,0,0,0,0,0,0,0,0,0,-0.1596,-0.1598,-0.1645,-0.1644,-0.1644,-0.1664,-0.1665,-0.1665,-0.1769,-0.1771,-0.1774,-0.1776,-0.1908,-0.191,-0.1912,0,0,0,0,0,0,0,0,0,0,0,0,0,-0.1622,-0.1598,-0.1645,-0.1694,-0.1698,-0.1664,-0.1665,-0.1666,-0.1768,-0.1771,-0.1774,-0.1777,-0.1907,-0.1909,-0.1912,-0.1869,0,0,-0.192,-0.1921,0,0,0,0,0,0,0,0,-0.1621,-0.1625,-0.1687,-0.169,-0.1695,-0.1712,-0.1696,-0.1737,-0.1768,-0.1748,-0.1775,-0.1778,-0.1847,-0.1855,-0.1858,-0.1875,-0.1881,-0.192,-0.1922,-0.1923,-0.1923,0,0,0,0,0,0,0,-0.1619,-0.1624,-0.1658,-0.1686,-0.1691,-0.168,-0.1688,-0.1704,-0.1787,-0.175,-0.1756,-0.1748,-0.1852,-0.1856,-0.1863,-0.1883,-0.192,-0.1922,-0.1924,-0.1925,-0.1927,-0.1926,0,0,0,0,0,0,-0.1607,-0.1622,-0.1657,-0.1658,-0.1658,-0.1678,-0.1688,-0.1708,-0.1785,-0.1797,-0.1745,-0.1753,-0.185,-0.1859,-0.1868,-0.1867,-0.1923,-0.1925,-0.1927,-0.1928,-0.1927,-0.1925,0,0,0,0,0,0,-0.1607,-0.1611,-0.1656,-0.1634,-0.1639,-0.1676,-0.1698,-0.1707,-0.172,-0.1779,-0.1795,-0.175,-0.1852,-0.1864,-0.1886,-0.1872,-0.1926,-0.1929,-0.193,-0.1928,-0.1926,-0.1837,0,0,0,0,0,0,-0.1606,-0.1612,-0.1623,-0.1634,-0.1639,-0.1645,-0.1695,-0.1705,-0.1708,-0.1718,-0.1788,-0.1803,-0.1856,-0.1882,-0.1889,-0.1877,-0.1931,-0.1932,-0.1929,-0.1927,-0.1842,-0.1832,-0.1824,0,0,0,0,0,-0.1604,-0.1604,-0.1624,-0.1628,-0.1655,-0.1644,-0.1646,-0.1685,-0.1705,-0.1709,-0.175,-0.1801,-0.187,-0.1882,-0.1891,-0.1879,-0.1933,-0.193,-0.1927,-0.1846,-0.1834,-0.1824,0,0,0,0,0,0,-0.1585,-0.1614,-0.1637,-0.1647,-0.1649,-0.166,-0.1654,-0.1671,-0.1702,-0.1719,-0.1778,-0.1794,-0.1808,-0.1845,-0.1857,-0.187,-0.1911,-0.1909,-0.1846,-0.1836,-0.1827,-0.1812,-0.1933,0,0,0,0,0,-0.1582,-0.16,-0.1612,-0.1619,-0.1614,-0.1629,-0.1627,-0.1655,-0.1675,-0.1693,-0.175,-0.179,-0.1793,-0.1818,-0.1845,-0.1846,-0.186,-0.1844,-0.1835,-0.1827,-0.1819,-0.1813,-0.1802,-0.1914,-0.1914,-0.1914,0,0,-0.1585,-0.159,-0.1609,-0.1615,-0.1618,-0.1605,-0.1638,-0.1635,-0.1632,-0.1699,-0.1732,-0.176,-0.1783,-0.1792,-0.1802,-0.1829,-0.18,-0.1823,-0.1816,-0.1813,-0.1808,-0.1797,-0.1787,-0.1912,-0.1912,-0.1913,0,0,-0.1558,-0.159,-0.1584,-0.1581,-0.1576,-0.1585,-0.1578,-0.1604,-0.1626,-0.164,-0.1677,-0.1684,-0.1736,-0.1738,-0.1737,-0.1684,-0.1745,-0.1712,-0.1665,-0.1658,-0.1649,-0.1641,-0.1635,-0.1628,-0.1716,-0.1716,-0.1716,0,-0.1546,-0.155,-0.1575,-0.155,-0.1542,-0.1569,-0.1548,-0.1555,-0.1597,-0.161,-0.165,-0.168,-0.1695,-0.1661,-0.1645,-0.1661,-0.1683,-0.1705,-0.1646,-0.1639,-0.1632,-0.1629,-0.1621,-0.1711,-0.1712,-0.1712,-0.1713,0,-0.1503,-0.1511,-0.1494,-0.1487,-0.1485,-0.1468,-0.1479,-0.1503,-0.1534,-0.1556,-0.1564,-0.1582,-0.1605,-0.1599,-0.1601,-0.1561,-0.1599,-0.1627,-0.1673,-0.1615,-0.1615,-0.1609,-0.1705,-0.1706,-0.1708,-0.1709,0,0,-0.1468,-0.1465,-0.1461,-0.1458,-0.1453,-0.1446,-0.1438,-0.1439,-0.1443,-0.1488,-0.1489,-0.1464,-0.1504,-0.1501,-0.1514,-0.1498,-0.1445,-0.1546,-0.1548,-0.1539,-0.1445,-0.1263,-0.124,-0.1484,-0.1483,-0.1482,-0.146,0,-0.142,-0.1367,-0.1386,-0.1362,-0.1343,-0.1376,-0.1369,-0.1385,-0.1413,-0.1437,-0.1434,-0.144,-0.1455,-0.1464,-0.1446,-0.1456,-0.1429,-0.1449,-0.1504,-0.1505,-0.1348,-0.1225,-0.1189,-0.1148,-0.1455,-0.1454,-0.1453,0,-0.1364,-0.1344,-0.1297,-0.1315,-0.131,-0.1303,-0.1317,-0.1318,-0.1343,-0.1371,-0.1385,-0.1411,-0.1377,-0.1402,-0.1382,-0.1411,-0.1408,-0.1412,-0.1413,-0.1268,-0.1309,-0.1258,-0.1127,-0.1444,-0.1445,-0.1445,-0.1446,0,-0.1307,-0.129,-0.1251,-0.1248,-0.126,-0.1261,-0.1274,-0.1301,-0.1306,-0.1328,-0.1343,-0.1348,-0.1349,-0.135,-0.1323,-0.1378,-0.1297,-0.1382,-0.1211,-0.1201,-0.1187,-0.1174,-0.134,-0.134,-0.134,-0.134,-0.134,0,-0.123,-0.1214,-0.1225,-0.1203,-0.1192,-0.1222,-0.1216,-0.1242,-0.1265,-0.1261,-0.1302,-0.1283,-0.134,-0.1303,-0.1302,-0.1193,-0.1275,-0.1156,-0.1157,-0.115,-0.1135,-0.1418,-0.1428,-0.1339,-0.134,-0.134,-0.134,0,-0.1161,-0.1157,-0.1138,-0.1152,-0.116,-0.1152,-0.1178,-0.1178,-0.1211,-0.1203,-0.1204,-0.1237,-0.1167,-0.1162,-0.1147,-0.1135,-0.1068,-0.1007,-0.0973,-0.0965,-0.1008,-0.1013,-0.0863,-0.0855,-0.0849,-0.0844,-0.084,0,-0.1108,-0.1088,-0.1098,-0.109,-0.1092,-0.1094,-0.1097,-0.114,-0.1137,-0.115,-0.1131,-0.1078,-0.0993,-0.0871,-0.0789,-0.0696,-0.0838,-0.0679,-0.0735,-0.0929,-0.0947,-0.0962,-0.0976,-0.0716,-0.0711,-0.0707,-0.0703,0,-0.1038,-0.1047,-0.1028,-0.1018,-0.1014,-0.1009,-0.1014,-0.1009,-0.1048,-0.1042,-0.0989,-0.0915,-0.0732,-0.0584,-0.0435,-0.0418,-0.0688,-0.0586,-0.0802,-0.0796,-0.0774,-0.0798,-0.0819,-0.0667,-0.0671,-0.0673,-0.0675,-0.0677,-0.0998,-0.0974,-0.0961,-0.0944,-0.0939,-0.0919,-0.0898,-0.0903,-0.0889,-0.0833,-0.0821,-0.0666,-0.0594,-0.0265,-0.0207,-0.02,-0.0267,-0.0399,-0.0421,-0.0444,-0.0383,-0.0347,-0.0151,-0.0152,-0.0152,-0.0153,-0.0153,0,-0.0942,-0.0917,-0.0895,-0.0862,-0.0823,-0.085,-0.0837,-0.0788,-0.0746,-0.064,-0.0552,-0.0386,-0.0223,-0.0144,-0.0016,0.0008,-0.0098,-0.0082,-0.0263,-0.0295,-0.0325,-0.0268,-0.0001,-0.0001,-0.0,0.0,0,0,-0.0912,-0.0862,-0.0845,-0.076,-0.0736,-0.0677,-0.0661,-0.0584,-0.049,-0.0349,-0.0238,-0.0134,-0.0081,-0.0005,0.0,0.0031,-0.0143,0.0017,-0.0103,-0.0343,-0.0372,-0.0497,-0.044,0,0,0,0,0]},{"header":{"parameterUnit":"m.s-1","parameterCategory":2,"la1":30.2991,"la2":30.254,"lo1":-89.0895,"lo2":-89.0444,"dy":0.0017,"dx":0.0017,"nx":28,"ny":28,"refTime":"2023-07-31T21:00:00:Z","depth":"2","parameterNumber":3,"parameterNumberName":"V-component_of_CURRENTS"},"data":[0,0,0,0,0,0,0,0,0,0,0,0,0,0,0,0,0,0,0,0,0,0,0,0,0,0,0,0,0,0,0,0,0,0,0,0,0,0,0,0,0,0,0,0,0,0,0,0,0,0,0,0,0,0,0,0,0,0,-0.053,-0.053,0,-0.0483,-0.0483,-0.0482,-0.0429,-0.0428,-0.0427,-0.0427,-0.0131,-0.0124,-0.0117,0,0,0,0,0,0,0,0,0,0,0,0,0,-0.0561,-0.0561,-0.053,-0.053,-0.0529,-0.0484,-0.0483,-0.0482,-0.0429,-0.0428,-0.0427,-0.0426,-0.0133,-0.0125,-0.0116,0,0,0,0,0,0,0,0,0,0,0,0,0,-0.0534,-0.0561,-0.053,-0.0497,-0.0494,-0.0484,-0.0483,-0.0482,-0.0429,-0.0428,-0.0427,-0.0426,-0.0136,-0.0125,-0.0115,-0.0073,0,0,-0.0082,-0.0078,0,0,0,0,0,0,0,0,-0.0536,-0.0533,-0.0503,-0.0499,-0.0496,-0.0461,-0.0385,-0.0333,-0.043,-0.0454,-0.0427,-0.0425,-0.0219,-0.0201,-0.0199,-0.0059,-0.0046,-0.0081,-0.0075,-0.007,-0.0067,0,0,0,0,0,0,0,-0.0538,-0.0535,-0.0512,-0.0502,-0.0498,-0.048,-0.0475,-0.0376,-0.0339,-0.0452,-0.0448,-0.0443,-0.0215,-0.021,-0.0191,-0.0042,-0.0082,-0.0072,-0.0065,-0.0061,0.0218,0.0219,0,0,0,0,0,0,-0.0546,-0.0537,-0.0513,-0.051,-0.0513,-0.0481,-0.0475,-0.0473,-0.0345,-0.0327,-0.0444,-0.0441,-0.0228,-0.0203,-0.018,-0.0096,-0.007,-0.006,-0.0054,0.0217,0.0218,0.0219,0,0,0,0,0,0,-0.0547,-0.0544,-0.0515,-0.0522,-0.0517,-0.0482,-0.048,-0.0473,-0.0473,-0.0342,-0.0318,-0.0452,-0.0226,-0.0195,-0.0102,-0.0084,-0.0055,-0.0046,0.0216,0.0218,0.0219,0.0057,0,0,0,0,0,0,-0.0548,-0.0545,-0.055,-0.0523,-0.0517,-0.0516,-0.0481,-0.0473,-0.0472,-0.0467,-0.034,-0.0312,-0.0223,-0.0119,-0.0092,-0.0069,-0.0037,0.0215,0.0217,0.0218,0.0061,0.0053,0.0046,0,0,0,0,0,-0.0549,-0.0553,-0.0551,-0.0548,-0.0524,-0.0516,-0.0512,-0.0482,-0.0474,-0.0478,-0.0396,-0.0316,-0.0086,-0.0111,-0.0079,-0.0052,0.0214,0.0216,0.0218,0.0065,0.0055,0.0046,0,0,0,0,0,0,-0.0565,-0.0547,-0.0544,-0.0542,-0.0537,-0.0507,-0.0503,-0.0498,-0.0445,-0.0427,-0.0318,-0.0284,-0.0197,-0.0099,-0.013,0.0038,0.0084,0.0092,-0.0044,-0.0052,-0.006,-0.0074,-0.0028,0,0,0,0,0,-0.0575,-0.0574,-0.056,-0.0561,-0.0558,-0.054,-0.0535,-0.052,-0.0471,-0.0451,-0.0356,-0.0246,-0.0163,-0.0093,0.0002,0.0092,0.0159,0.0139,0.0131,0.0124,0.0137,0.0191,0.0187,0.0227,0.0227,0.0227,0,0,-0.0586,-0.0572,-0.0575,-0.0566,-0.0554,-0.0544,-0.0534,-0.0527,-0.0511,-0.0418,-0.0346,-0.0277,-0.0151,-0.0063,-0.001,0.0025,0.0153,0.0127,0.0118,0.0137,0.0192,0.0188,0.0184,0.0228,0.0228,0.0228,0,0,-0.0597,-0.0592,-0.0594,-0.0586,-0.0572,-0.0556,-0.0563,-0.0532,-0.0511,-0.0453,-0.0387,-0.0325,-0.0161,-0.0092,-0.0032,-0.0018,0.0091,0.0037,0.0008,0.0058,0.0054,0.0051,0.0134,0.014,0.0053,0.0053,0.0052,0,-0.0612,-0.0604,-0.0596,-0.0587,-0.0576,-0.0565,-0.0562,-0.0542,-0.0482,-0.0455,-0.0431,-0.0261,-0.0178,-0.0091,-0.0091,-0.0039,0.0024,0.0018,0.0041,0.004,0.004,0.0126,0.0135,0.0045,0.0046,0.0047,0.0047,0,-0.0616,-0.0611,-0.0608,-0.059,-0.0583,-0.0576,-0.0549,-0.0527,-0.0498,-0.0467,-0.0391,-0.0306,-0.02,-0.0171,-0.0126,-0.0073,-0.0018,-0.0003,0.0045,0.0025,0.0119,0.013,0.0034,0.0037,0.0039,0.0041,0,0,-0.0643,-0.0619,-0.0616,-0.061,-0.0581,-0.0577,-0.0547,-0.0519,-0.05,-0.0437,-0.0401,-0.0305,-0.0275,-0.0206,-0.015,-0.0108,-0.0081,-0.0056,-0.005,-0.0006,0.0062,0.0071,0.0086,-0.007,-0.0069,-0.0068,0.0126,0,-0.0649,-0.0639,-0.062,-0.0608,-0.06,-0.0573,-0.0549,-0.0519,-0.0481,-0.0436,-0.0375,-0.0314,-0.0281,-0.0248,-0.0207,-0.0114,-0.0055,-0.0132,0.0106,0.0115,0.0096,0.0097,0.0058,0.0225,0.0138,0.014,0.0142,0,-0.0652,-0.0642,-0.0637,-0.0614,-0.0609,-0.0599,-0.0563,-0.0541,-0.0484,-0.0454,-0.0396,-0.0342,-0.027,-0.0257,-0.0096,-0.0144,-0.0046,0.0023,0.0032,0.0109,0.0145,0.0237,0.025,0.0163,0.0161,0.0159,0.0158,0,-0.0669,-0.065,-0.0648,-0.0638,-0.0611,-0.0604,-0.0589,-0.0544,-0.0526,-0.047,-0.045,-0.035,-0.0296,-0.0184,-0.004,-0.0064,0.0142,0.0129,0.0244,0.0248,0.0301,0.0306,0.0248,0.0247,0.0247,0.0246,0.0246,0,-0.0673,-0.0668,-0.0658,-0.0655,-0.0651,-0.0626,-0.0615,-0.0589,-0.0552,-0.0524,-0.0467,-0.0415,-0.0281,-0.0149,-0.0028,0.0157,0.0165,0.0252,0.0293,0.0246,0.0244,0.0259,0.0258,0.0254,0.0252,0.0251,0.025,0,-0.0684,-0.0679,-0.0675,-0.066,-0.066,-0.0657,-0.0645,-0.0634,-0.0602,-0.0568,-0.0554,-0.0444,-0.0281,-0.012,0.009,0.018,0.0346,0.0417,0.0368,0.0397,0.0421,0.041,0.0553,0.0554,0.0556,0.0557,0.0558,0,-0.0687,-0.0686,-0.0686,-0.0692,-0.0688,-0.0685,-0.0685,-0.0662,-0.065,-0.0572,-0.0554,-0.0404,-0.0286,0.0022,0.0224,0.0459,0.0437,0.0539,0.0462,0.0424,0.045,0.0437,0.0424,0.0489,0.0489,0.0489,0.049,0,-0.0685,-0.0689,-0.0688,-0.0705,-0.0714,-0.0723,-0.0721,-0.0726,-0.0685,-0.0642,-0.0538,-0.044,-0.0155,0.0094,0.0371,0.0472,0.0483,0.0551,0.0549,0.0392,0.0372,0.0395,0.0383,0.0493,0.0492,0.0492,0.0492,0.0492,-0.0684,-0.0689,-0.0697,-0.0711,-0.0729,-0.0756,-0.0767,-0.0748,-0.0722,-0.0656,-0.0548,-0.0347,-0.016,0.0256,0.0395,0.055,0.0575,0.058,0.0576,0.0572,0.0504,0.0485,0.0618,0.0618,0.0619,0.0619,0.0619,0,-0.0689,-0.0693,-0.0701,-0.0734,-0.0771,-0.0772,-0.0784,-0.0791,-0.0754,-0.0623,-0.0517,-0.0272,-0.0015,0.0217,0.0509,0.0612,0.0548,0.0557,0.0488,0.0487,0.0485,0.0408,0.0499,0.0499,0.0498,0.0498,0,0,-0.0694,-0.0704,-0.0708,-0.0763,-0.0794,-0.084,-0.0851,-0.0834,-0.0739,-0.0597,-0.0389,-0.0259,0.0074,0.0204,0.0314,0.0466,0.0407,0.0411,0.0504,0.0404,0.04,0.0507,0.039,0,0,0,0,0]}],[{"header":{"parameterUnit":"m.s-1","parameterCategory":2,"la1":30.2991,"la2":30.254,"lo1":-89.0895,"lo2":-89.0444,"dy":0.0017,"dx":0.0017,"nx":28,"ny":28,"refTime":"2023-07-31T21:00:00:Z","depth":"4","parameterNumber":2,"parameterNumberName":"U-component_of_CURRENTS"},"data":[0,0,0,0,0,0,0,0,0,0,0,0,0,0,0,0,0,0,0,0,0,0,0,0,0,0,0,0,0,0,0,0,0,0,0,0,0,0,0,0,0,0,0,0,0,0,0,0,0,0,0,0,0,0,0,0,0,0,-0.0899,-0.0899,0,-0.0934,-0.0934,-0.0935,-0.0959,-0.0959,-0.0959,-0.096,-0.0994,-0.0994,-0.0995,0,0,0,0,0,0,0,0,0,0,0,0,0,-0.0874,-0.0874,-0.0899,-0.0899,-0.09,-0.0934,-0.0934,-0.0935,-0.0959,-0.0959,-0.096,-0.096,-0.0994,-0.0994,-0.0995,0,0,0,0,0,0,0,0,0,0,0,0,0,-0.0894,-0.0874,-0.0899,-0.0916,-0.0918,-0.0934,-0.0934,-0.0935,-0.0959,-0.0959,-0.096,-0.096,-0.0993,-0.0994,-0.0995,-0.0996,0,0,-0.0999,-0.0999,0,0,0,0,0,0,0,0,-0.0893,-0.0895,-0.0913,-0.0915,-0.0917,-0.0942,-0.0938,-0.0955,-0.0959,-0.0943,-0.096,-0.096,-0.0976,-0.0979,-0.0985,-0.0998,-0.0999,-0.0999,-0.0999,-0.1,-0.1,0,0,0,0,0,0,0,-0.0891,-0.0894,-0.0912,-0.0913,-0.0916,-0.0929,-0.0932,-0.0942,-0.0958,-0.0945,-0.0946,-0.095,-0.0978,-0.0984,-0.0986,-0.1,-0.0999,-0.1,-0.1,-0.1001,-0.1038,-0.1039,0,0,0,0,0,0,-0.0886,-0.0892,-0.0911,-0.0913,-0.0906,-0.0929,-0.0933,-0.0934,-0.0958,-0.0962,-0.095,-0.0952,-0.0982,-0.0984,-0.0987,-0.1029,-0.1,-0.1001,-0.1002,-0.1038,-0.1038,-0.1039,0,0,0,0,0,0,-0.0885,-0.0887,-0.091,-0.0904,-0.0908,-0.0929,-0.093,-0.0934,-0.0954,-0.0962,-0.0966,-0.0968,-0.0982,-0.0985,-0.1008,-0.1029,-0.1001,-0.1002,-0.1038,-0.1038,-0.1039,-0.1086,0,0,0,0,0,0,-0.0884,-0.0887,-0.0896,-0.0903,-0.0908,-0.0922,-0.093,-0.0935,-0.0955,-0.0958,-0.0978,-0.0981,-0.0982,-0.1007,-0.1009,-0.103,-0.1003,-0.1037,-0.1038,-0.1038,-0.1084,-0.1089,-0.1092,0,0,0,0,0,-0.0883,-0.0888,-0.0896,-0.0899,-0.0916,-0.0922,-0.0926,-0.0942,-0.0956,-0.0962,-0.0982,-0.0981,-0.1012,-0.1008,-0.1011,-0.1032,-0.1037,-0.1038,-0.1038,-0.1083,-0.1088,-0.1092,0,0,0,0,0,0,-0.0882,-0.0891,-0.09,-0.0908,-0.0917,-0.0926,-0.094,-0.095,-0.0971,-0.0983,-0.099,-0.0994,-0.1019,-0.1016,-0.1011,-0.1042,-0.1023,-0.1024,-0.1055,-0.106,-0.1064,-0.1061,-0.1004,0,0,0,0,0,-0.0885,-0.0891,-0.0901,-0.0908,-0.0917,-0.0932,-0.0942,-0.0953,-0.0968,-0.0979,-0.0991,-0.1006,-0.1022,-0.1034,-0.104,-0.1062,-0.1039,-0.1074,-0.1078,-0.1082,-0.108,-0.1069,-0.1072,-0.1041,-0.1041,-0.1041,0,0,-0.0886,-0.0893,-0.0896,-0.0909,-0.0922,-0.0939,-0.094,-0.0957,-0.098,-0.0979,-0.1015,-0.102,-0.1029,-0.1053,-0.1064,-0.1057,-0.1075,-0.1083,-0.1086,-0.1082,-0.107,-0.1073,-0.1075,-0.1042,-0.1042,-0.1042,0,0,-0.0885,-0.0898,-0.0905,-0.0917,-0.0939,-0.0951,-0.0959,-0.0977,-0.0996,-0.1023,-0.1031,-0.1047,-0.107,-0.108,-0.1089,-0.1116,-0.1093,-0.112,-0.1145,-0.1134,-0.1137,-0.1139,-0.11,-0.1098,-0.1125,-0.1125,-0.1125,0,-0.0889,-0.0898,-0.0908,-0.0922,-0.0941,-0.0959,-0.0979,-0.1,-0.1023,-0.1039,-0.104,-0.1075,-0.1082,-0.1116,-0.1127,-0.1126,-0.1106,-0.1131,-0.114,-0.1141,-0.1142,-0.1102,-0.1099,-0.1128,-0.1127,-0.1127,-0.1127,0,-0.0892,-0.091,-0.0917,-0.0945,-0.0966,-0.0983,-0.1014,-0.1038,-0.1063,-0.1078,-0.1112,-0.112,-0.1136,-0.1146,-0.115,-0.1168,-0.1145,-0.1144,-0.113,-0.1148,-0.1104,-0.1101,-0.1131,-0.113,-0.113,-0.1129,0,0,-0.0874,-0.0912,-0.0918,-0.0939,-0.0982,-0.0997,-0.1043,-0.1079,-0.1105,-0.1131,-0.1155,-0.1188,-0.1185,-0.1193,-0.1197,-0.1196,-0.1185,-0.1179,-0.1177,-0.1143,-0.1141,-0.1055,-0.1042,-0.1191,-0.1191,-0.1191,-0.1102,0,-0.0877,-0.0906,-0.093,-0.0971,-0.0993,-0.1032,-0.1068,-0.1107,-0.1135,-0.1159,-0.1181,-0.1199,-0.1208,-0.1211,-0.1217,-0.1192,-0.1179,-0.1207,-0.1125,-0.1122,-0.1047,-0.1037,-0.1191,-0.1099,-0.1098,-0.1098,-0.1097,0,-0.0877,-0.0898,-0.0934,-0.0988,-0.1002,-0.1032,-0.1092,-0.1124,-0.1167,-0.1185,-0.1211,-0.1217,-0.123,-0.1225,-0.1199,-0.1218,-0.1182,-0.1159,-0.1155,-0.1056,-0.103,-0.1079,-0.109,-0.1091,-0.1091,-0.1092,-0.1092,0,-0.0854,-0.0905,-0.0935,-0.0954,-0.1012,-0.1043,-0.1079,-0.113,-0.1152,-0.1192,-0.1193,-0.1222,-0.1212,-0.12,-0.1162,-0.1178,-0.1111,-0.1123,-0.1008,-0.1001,-0.1086,-0.1085,-0.1091,-0.1091,-0.1091,-0.1091,-0.1091,0,-0.0839,-0.0868,-0.0928,-0.094,-0.0982,-0.1033,-0.107,-0.111,-0.1146,-0.1147,-0.1197,-0.1178,-0.1205,-0.1174,-0.1152,-0.1058,-0.1099,-0.0999,-0.0973,-0.1105,-0.1107,-0.1082,-0.1082,-0.1088,-0.1089,-0.1089,-0.109,0,-0.0805,-0.0842,-0.088,-0.0944,-0.0967,-0.0997,-0.1055,-0.107,-0.1113,-0.111,-0.1117,-0.1135,-0.1082,-0.1088,-0.1041,-0.1013,-0.0952,-0.0908,-0.1025,-0.101,-0.085,-0.0853,-0.0765,-0.0761,-0.0758,-0.0755,-0.0753,0,-0.0785,-0.0799,-0.087,-0.0887,-0.0916,-0.0964,-0.0986,-0.1046,-0.105,-0.1058,-0.1039,-0.1008,-0.1005,-0.0863,-0.0893,-0.0834,-0.0829,-0.0799,-0.085,-0.0832,-0.0817,-0.0826,-0.0833,-0.0748,-0.0747,-0.0746,-0.0746,0,-0.0747,-0.0779,-0.0806,-0.084,-0.087,-0.0894,-0.0927,-0.0917,-0.0956,-0.1001,-0.0913,-0.0872,-0.0804,-0.0775,-0.0736,-0.0705,-0.0829,-0.0766,-0.0773,-0.082,-0.0811,-0.0801,-0.0812,-0.0735,-0.0736,-0.0737,-0.0738,0,-0.072,-0.0731,-0.0765,-0.0788,-0.0817,-0.0807,-0.0834,-0.0816,-0.0821,-0.0832,-0.0789,-0.0758,-0.0768,-0.0702,-0.0667,-0.0631,-0.0625,-0.062,-0.0635,-0.0648,-0.0656,-0.063,-0.0461,0,0,0,0,0,-0.0691,-0.0692,-0.0708,-0.0718,-0.0738,-0.075,-0.0785,-0.0809,-0.0836,-0.0742,-0.0762,-0.0689,-0.0614,-0.0609,-0.0545,-0.0629,-0.0646,-0.0556,-0.0654,-0.0673,-0.0686,-0.0711,0,0,0,0,0,0,-0.0667,-0.0686,-0.0688,-0.065,-0.0635,-0.0644,-0.0657,-0.0677,-0.0632,-0.0658,-0.0616,-0.064,-0.0582,-0.0621,-0.0523,-0.0524,-0.0571,-0.0552,-0.0549,-0.0666,-0.0678,-0.0688,-0.0718,0,0,0,0,0]},{"header":{"parameterUnit":"m.s-1","parameterCategory":2,"la1":30.2991,"la2":30.254,"lo1":-89.0895,"lo2":-89.0444,"dy":0.0017,"dx":0.0017,"nx":28,"ny":28,"refTime":"2023-07-31T21:00:00:Z","depth":"4","parameterNumber":3,"parameterNumberName":"V-component_of_CURRENTS"},"data":[0,0,0,0,0,0,0,0,0,0,0,0,0,0,0,0,0,0,0,0,0,0,0,0,0,0,0,0,0,0,0,0,0,0,0,0,0,0,0,0,0,0,0,0,0,0,0,0,0,0,0,0,0,0,0,0,0,0,-0.0423,-0.0423,0,-0.0392,-0.0392,-0.0392,-0.0385,-0.0385,-0.0386,-0.0386,-0.0356,-0.0355,-0.0354,0,0,0,0,0,0,0,0,0,0,0,0,0,-0.041,-0.0411,-0.0423,-0.0423,-0.0422,-0.0392,-0.0392,-0.0391,-0.0385,-0.0385,-0.0386,-0.0386,-0.0357,-0.0355,-0.0354,0,0,0,0,0,0,0,0,0,0,0,0,0,-0.0401,-0.0411,-0.0423,-0.0416,-0.0415,-0.0393,-0.0392,-0.0391,-0.0385,-0.0385,-0.0386,-0.0386,-0.0357,-0.0356,-0.0354,-0.0336,0,0,-0.0349,-0.0349,0,0,0,0,0,0,0,0,-0.0401,-0.0401,-0.0417,-0.0416,-0.0415,-0.0393,-0.0377,-0.0373,-0.0385,-0.0396,-0.0386,-0.0386,-0.0369,-0.0366,-0.0359,-0.0335,-0.0333,-0.0349,-0.0348,-0.0347,-0.0347,0,0,0,0,0,0,0,-0.0402,-0.0402,-0.041,-0.0417,-0.0416,-0.0392,-0.0391,-0.0375,-0.038,-0.0395,-0.0394,-0.0392,-0.0368,-0.036,-0.0358,-0.0333,-0.0349,-0.0348,-0.0347,-0.0346,-0.0323,-0.0323,0,0,0,0,0,0,-0.041,-0.0403,-0.0411,-0.0409,-0.041,-0.0392,-0.0391,-0.04,-0.038,-0.0378,-0.0391,-0.0392,-0.0363,-0.036,-0.0357,-0.0339,-0.0348,-0.0346,-0.0345,-0.0322,-0.0323,-0.0323,0,0,0,0,0,0,-0.041,-0.0412,-0.0412,-0.0405,-0.0404,-0.0392,-0.0401,-0.0399,-0.04,-0.0378,-0.0375,-0.0396,-0.0363,-0.0359,-0.0347,-0.0338,-0.0345,-0.0344,-0.0322,-0.0323,-0.0323,-0.0301,0,0,0,0,0,0,-0.041,-0.0412,-0.0421,-0.0406,-0.0405,-0.0407,-0.0401,-0.0398,-0.0397,-0.0397,-0.038,-0.0378,-0.0363,-0.0349,-0.0345,-0.0336,-0.0343,-0.0322,-0.0322,-0.0323,-0.0301,-0.03,-0.03,0,0,0,0,0,-0.041,-0.042,-0.0422,-0.0423,-0.0418,-0.0407,-0.0404,-0.0396,-0.0397,-0.0398,-0.0385,-0.0379,-0.0351,-0.0347,-0.0343,-0.0333,-0.0321,-0.0322,-0.0323,-0.0301,-0.03,-0.03,0,0,0,0,0,0,-0.0422,-0.042,-0.0422,-0.0433,-0.0425,-0.0406,-0.0407,-0.0401,-0.0391,-0.0396,-0.0375,-0.037,-0.036,-0.0354,-0.0352,-0.0332,-0.0338,-0.0338,-0.0323,-0.0323,-0.0322,-0.0315,-0.0341,0,0,0,0,0,-0.0429,-0.0437,-0.0429,-0.0438,-0.0437,-0.0424,-0.042,-0.0417,-0.0404,-0.0401,-0.0384,-0.0373,-0.0357,-0.0347,-0.0338,-0.0319,-0.0295,-0.0315,-0.0315,-0.0314,-0.0308,-0.0253,-0.0245,-0.0326,-0.0326,-0.0326,0,0,-0.0437,-0.0436,-0.0442,-0.0441,-0.0436,-0.0431,-0.0423,-0.0424,-0.0416,-0.0399,-0.0385,-0.0371,-0.0355,-0.0336,-0.0331,-0.0329,-0.0281,-0.0315,-0.0314,-0.0308,-0.0252,-0.0244,-0.0237,-0.0326,-0.0326,-0.0326,0,0,-0.0448,-0.0458,-0.0464,-0.0458,-0.0454,-0.0445,-0.0448,-0.0434,-0.0427,-0.0413,-0.0397,-0.0371,-0.0359,-0.0326,-0.0313,-0.0304,-0.0284,-0.0318,-0.0297,-0.0243,-0.0235,-0.0228,-0.0192,-0.0182,-0.0311,-0.0311,-0.0311,0,-0.0458,-0.0466,-0.0463,-0.0462,-0.0459,-0.0453,-0.0454,-0.0442,-0.0423,-0.0407,-0.0414,-0.0362,-0.0347,-0.0298,-0.0297,-0.0298,-0.0276,-0.0296,-0.0239,-0.0231,-0.0224,-0.0189,-0.0178,-0.031,-0.031,-0.031,-0.031,0,-0.0466,-0.0473,-0.0476,-0.0475,-0.0469,-0.0473,-0.0457,-0.0449,-0.0442,-0.0419,-0.0382,-0.0348,-0.0313,-0.0306,-0.0298,-0.0242,-0.0246,-0.0246,-0.0234,-0.0214,-0.018,-0.0168,-0.0308,-0.0308,-0.0309,-0.0309,0,0,-0.0489,-0.0484,-0.0487,-0.0488,-0.048,-0.0477,-0.0464,-0.044,-0.0426,-0.0396,-0.0361,-0.0316,-0.0292,-0.0276,-0.0252,-0.0201,-0.0133,-0.0205,-0.0203,-0.0157,-0.0026,-0.0041,-0.003,-0.0121,-0.0119,-0.0117,-0.0023,0,-0.0498,-0.0504,-0.0495,-0.0498,-0.05,-0.0485,-0.047,-0.0447,-0.0425,-0.039,-0.0334,-0.0302,-0.0283,-0.0267,-0.0208,-0.0158,-0.0102,-0.0159,-0.0063,-0.0061,-0.0065,-0.0017,-0.0111,-0.0015,-0.0012,-0.001,-0.0009,0,-0.0507,-0.0509,-0.0518,-0.0509,-0.0509,-0.0508,-0.0486,-0.0471,-0.0415,-0.0395,-0.0337,-0.0302,-0.022,-0.0219,-0.0088,-0.0129,-0.0076,-0.0032,-0.0027,-0.0038,-0.0054,-0.0039,0.0012,0.001,0.0009,0.0007,0.0006,0,-0.0524,-0.0525,-0.0535,-0.0533,-0.0521,-0.052,-0.0514,-0.0472,-0.0457,-0.0398,-0.038,-0.0279,-0.024,-0.0143,-0.0055,-0.007,0.0081,0.0072,0.0116,0.0115,0.009,0.0081,0.0173,0.0173,0.0173,0.0172,0.0172,0,-0.0533,-0.0542,-0.0548,-0.0554,-0.0562,-0.0544,-0.0539,-0.0516,-0.0477,-0.045,-0.0386,-0.0343,-0.0221,-0.0127,-0.0042,0.0074,0.0098,0.0135,0.0149,0.0093,0.0084,0.0098,0.0088,0.0176,0.0175,0.0174,0.0174,0,-0.0544,-0.0551,-0.0563,-0.0566,-0.0571,-0.0577,-0.0574,-0.0563,-0.0529,-0.0492,-0.0476,-0.0381,-0.0255,-0.013,0.0025,0.008,0.0197,0.023,0.016,0.0164,0.019,0.018,0.0295,0.0296,0.0296,0.0297,0.0297,0,-0.0548,-0.0557,-0.0581,-0.0594,-0.0601,-0.061,-0.0614,-0.0593,-0.0578,-0.051,-0.049,-0.0375,-0.0297,-0.0085,0.004,0.0218,0.0231,0.0277,0.0244,0.0207,0.0208,0.0197,0.0187,0.0298,0.0298,0.0298,0.0298,0,-0.055,-0.0566,-0.0578,-0.0609,-0.0629,-0.0643,-0.0648,-0.0644,-0.0604,-0.0576,-0.0488,-0.0377,-0.0239,-0.0081,0.0055,0.0178,0.0242,0.0282,0.0281,0.025,0.0211,0.0209,0.0198,0.0299,0.0299,0.0299,0.0299,0,-0.0555,-0.0568,-0.0591,-0.0613,-0.0645,-0.0665,-0.0667,-0.0641,-0.0623,-0.0547,-0.0515,-0.0366,-0.0276,-0.01,0.003,0.0149,0.0169,0.0181,0.0186,0.0186,0.012,0.0051,0.012,0,0,0,0,0,-0.0557,-0.0572,-0.0591,-0.0626,-0.0659,-0.0681,-0.068,-0.0673,-0.064,-0.0581,-0.0546,-0.0412,-0.0217,-0.0132,-0.0012,0.003,0.0182,0.017,0.0196,0.0308,0.0306,0.0245,0,0,0,0,0,0,-0.0561,-0.0584,-0.0587,-0.0629,-0.0662,-0.07,-0.0706,-0.0686,-0.0645,-0.0594,-0.0483,-0.0415,-0.0218,-0.0288,-0.0023,0.0015,0.004,0.0269,0.0271,0.0308,0.0307,0.0306,0.0242,0,0,0,0,0]}]]